Beauvais, France

4:35 AM CEST on September 23, 2017 (GMT +0200)
Tille

Weather History for LFOB - February, 2013

Change the Weather History Date:

Saturday, February 2, 2013

  Actual Average Record
Temperature  
Mean Temperature 38 °F -  
Max Temperature 42 °F 44 °F 59 °F (2002)
Min Temperature 33 °F 34 °F 15 °F (1998)
Degree Days  
Heating Degree Days 28    
Moisture  
Dew Point 34 °F    
Average Humidity 85    
Maximum Humidity 100    
Minimum Humidity 65    
Precipitation  
Precipitation 0.00 in - - ()
Sea Level Pressure  
Sea Level Pressure 29.85 in    
Wind  
Wind Speed 10 mph ()    
Max Wind Speed 24 mph    
Max Gust Speed -    
Visibility 6.2 miles    
Events Rain , Snow    
Averages and records for this station are not official NWS values.
T = Trace of Precipitation, MM = Missing Value Source: Averaged Metar Reports

Daily Weather History Graph

Daily Weather History Graph

Search for Another Location

Airport or City:

Trip Planner

Search our weather history database for the weather conditions in past years. The results will help you decide how hot, cold, wet, or windy it might be!

Date:

Astronomy

Feb. 02, 2013 Rise Set
Actual Time 8:21 AM CET 5:49 PM CET
Civil Twilight 7:47 AM CET 6:23 PM CET
Nautical Twilight 7:09 AM CET 7:01 PM CET
Astronomical Twilight 6:32 AM CET 7:39 PM CET
Moon 12:17 AM CET (2/2) 10:41 AM CET (2/2)
Length of Visible Light 10h 35m
Length of Day
9h 27m
Waning Gibbous, 62% of the Moon is Illuminated
Feb 2
Waning Gibbous
Feb 3
Last Quarter
Feb 10
New
Feb 17
First Quarter
Feb 25
Full

Hourly Weather History & Observations

Time (CET) Temp. Windchill Dew Point Humidity Pressure Visibility Wind Dir Wind Speed Gust Speed Precip Events Conditions
12:00 AM 39.2 °F 35.0 °F 37.4 °F 93% 29.53 in 6.2 mi WNW 5.8 mph - N/A   Mostly Cloudy
12:30 AM 39.2 °F 35.0 °F 35.6 °F 87% 29.53 in 6.2 mi West 5.8 mph - N/A   Unknown
1:00 AM 35.6 °F 32.8 °F 33.8 °F 93% 29.53 in 6.2 mi West 3.5 mph - N/A   Mostly Cloudy
1:30 AM 37.4 °F 32.8 °F 35.6 °F 93% 29.56 in 6.2 mi West 5.8 mph - N/A   Unknown
2:00 AM 35.6 °F 31.7 °F 33.8 °F 93% 29.56 in 6.2 mi WNW 4.6 mph - N/A   Unknown
2:30 AM 37.4 °F 32.8 °F 35.6 °F 93% 29.56 in 6.2 mi West 5.8 mph - N/A   Unknown
3:00 AM 33.8 °F 28.6 °F 33.8 °F 100% 29.56 in 6.2 mi WNW 5.8 mph - N/A   Unknown
3:30 AM 35.6 °F 29.9 °F 33.8 °F 93% 29.59 in 6.2 mi WNW 6.9 mph - N/A   Unknown
4:00 AM 33.8 °F 27.7 °F 32.0 °F 93% 29.59 in 6.2 mi WNW 6.9 mph - N/A   Mostly Cloudy
4:30 AM 35.6 °F 29.2 °F 35.6 °F 100% 29.62 in 6.2 mi WNW 8.1 mph - N/A   Overcast
5:00 AM 37.4 °F 31.4 °F 35.6 °F 93% 29.62 in 6.2 mi WNW 8.1 mph - N/A   Overcast
5:30 AM 37.4 °F 31.4 °F 35.6 °F 93% 29.62 in 6.2 mi WNW 8.1 mph - N/A   Mostly Cloudy
6:00 AM 35.6 °F 28.6 °F 33.8 °F 93% 29.65 in 6.2 mi WNW 9.2 mph - N/A   Unknown
6:30 AM 37.4 °F 32.1 °F 35.6 °F 93% 29.65 in 6.2 mi WNW 6.9 mph - N/A   Overcast
7:00 AM 37.4 °F 31.4 °F 37.4 °F 100% 29.68 in 6.2 mi WNW 8.1 mph - N/A   Mostly Cloudy
7:30 AM 39.2 °F 32.5 °F 37.4 °F 93% 29.68 in 6.2 mi WNW 10.4 mph - N/A   Mostly Cloudy
8:00 AM 39.2 °F 31.6 °F 37.4 °F 93% 29.71 in 6.2 mi NNW 12.7 mph - N/A   Overcast
8:30 AM 39.2 °F 30.2 °F 35.6 °F 87% 29.74 in 6.2 mi North 17.3 mph - N/A Rain Light Rain
9:00 AM 39.2 °F 31.6 °F 35.6 °F 87% 29.77 in 6.2 mi NNW 12.7 mph - N/A   Mostly Cloudy
9:30 AM 39.2 °F 30.5 °F 35.6 °F 87% 29.77 in 6.2 mi NNW 16.1 mph - N/A   Mostly Cloudy
10:00 AM 39.2 °F 29.3 °F 35.6 °F 87% 29.80 in 6.2 mi North 20.7 mph - N/A   Mostly Cloudy
10:30 AM 39.2 °F 28.7 °F 33.8 °F 81% 29.83 in 6.2 mi North 23.0 mph - N/A   Mostly Cloudy
11:00 AM 41.0 °F 31.9 °F 35.6 °F 81% 29.83 in 6.2 mi North 19.6 mph - N/A   Mostly Cloudy
11:30 AM 41.0 °F 33.1 °F 35.6 °F 81% 29.86 in 6.2 mi North 15.0 mph - N/A   Mostly Cloudy
12:00 PM 41.0 °F 32.8 °F 35.6 °F 81% 29.86 in 6.2 mi North 16.1 mph - N/A   Mostly Cloudy
12:30 PM 41.0 °F 31.1 °F 32.0 °F 70% 29.89 in 6.2 mi North 23.0 mph - N/A   Mostly Cloudy
1:00 PM 42.8 °F 33.8 °F 33.8 °F 70% 29.89 in 6.2 mi North 21.9 mph - N/A   Mostly Cloudy
1:30 PM 42.8 °F 33.8 °F 33.8 °F 70% 29.89 in 6.2 mi NNW 21.9 mph - N/A   Mostly Cloudy
2:00 PM 42.8 °F 34.3 °F 33.8 °F 70% 29.92 in 6.2 mi NNW 19.6 mph - N/A   Mostly Cloudy
2:30 PM 39.2 °F 29.0 °F 33.8 °F 81% 29.92 in 6.2 mi North 21.9 mph - N/A   Mostly Cloudy
3:00 PM 41.0 °F 31.1 °F 33.8 °F 76% 29.95 in 6.2 mi NNW 23.0 mph - N/A   Partly Cloudy
3:30 PM 41.0 °F 30.9 °F 32.0 °F 70% 29.98 in 6.2 mi North 24.2 mph - N/A   Mostly Cloudy
4:00 PM 41.0 °F 31.9 °F 30.2 °F 65% 29.98 in 6.2 mi NNW 19.6 mph - N/A   Mostly Cloudy
4:30 PM 39.2 °F 29.0 °F 32.0 °F 75% 30.01 in 6.2 mi North 21.9 mph - N/A   Mostly Cloudy
5:00 PM 39.2 °F 29.6 °F 30.2 °F 70% 30.01 in 6.2 mi NNW 19.6 mph - N/A   Mostly Cloudy
5:30 PM 39.2 °F 29.3 °F 30.2 °F 70% 30.04 in 6.2 mi North 20.7 mph - N/A   Mostly Cloudy
6:00 PM 35.6 °F 24.5 °F 32.0 °F 87% 30.06 in 6.2 mi North 20.7 mph - N/A Rain , Snow Light Snow
6:30 PM 35.6 °F 24.5 °F 32.0 °F 87% 30.06 in 6.2 mi NNW 20.7 mph - N/A   Mostly Cloudy
7:00 PM 35.6 °F 26.6 °F 32.0 °F 87% 30.09 in 6.2 mi NNW 13.8 mph - N/A   Unknown
7:30 PM 33.8 °F 24.8 °F 32.0 °F 93% 30.09 in 6.2 mi NNW 12.7 mph - N/A   Partly Cloudy
8:00 PM 35.6 °F 27.5 °F 32.0 °F 87% 30.12 in 6.2 mi NNW 11.5 mph - N/A   Unknown
8:30 PM 35.6 °F 27.1 °F 32.0 °F 87% 30.12 in 6.2 mi NNW 12.7 mph - N/A   Unknown
9:00 PM 35.6 °F 28.0 °F 30.2 °F 81% 30.12 in 6.2 mi NNW 10.4 mph - N/A   Partly Cloudy
9:30 PM 33.8 °F 27.0 °F 30.2 °F 87% 30.15 in 6.2 mi NNW 8.1 mph - N/A   Partly Cloudy
10:00 PM 33.8 °F 26.4 °F 30.2 °F 87% 30.15 in 6.2 mi NNW 9.2 mph - N/A   Unknown
10:30 PM 33.8 °F 25.8 °F 30.2 °F 87% 30.15 in 6.2 mi NNW 10.4 mph - N/A   Unknown
11:00 PM 33.8 °F 25.3 °F 30.2 °F 87% 30.15 in 6.2 mi NNW 11.5 mph - N/A   Unknown
11:30 PM 33.8 °F 25.3 °F 30.2 °F 87% 30.18 in 6.2 mi NNW 11.5 mph - N/A   Unknown